When you browse on this site, cookies collect data to enhance your experience and personalize the content and advertising you see.
Visit our Privacy Policy to learn more. By continuing to use the site, you agree to this use of cookies and data.
  • In Österreich
  • Länderverzeichnis
  • Für 7 Tage
  • Wassertemperatur
  • Satellitenkarten
  • Wetterkarte
  • News
  • Widgets
  • user-avatar
    Anmelden

    Stündliche Wetter Berat

    Heute, 18 Dezember, Dienstag

    Zeit Temperatur Niederschläge Wind Luftdruck Luftfeuchtigkeit
    00:00 +5°C° 1.6 mm 4 m/S 742 mmHg 86%
    01:00 +5°C° 0 mm 3 m/S 742 mmHg 88%
    02:00 +4°C° 1.1 mm 3 m/S 742 mmHg 87%
    03:00 +4°C° 1.1 mm 3 m/S 743 mmHg 86%
    04:00 +4°C° 1.1 mm 4 m/S 743 mmHg 86%
    05:00 +4°C° 0.6 mm 4 m/S 743 mmHg 86%
    06:00 +4°C° 0.6 mm 4 m/S 744 mmHg 87%
    07:00 +3°C° 0 mm 4 m/S 744 mmHg 87%
    08:00 +4°C° 0.2 mm 4 m/S 744 mmHg 86%
    09:00 +4°C° 0.2 mm 4 m/S 745 mmHg 85%
    10:00 +5°C° 0.2 mm 4 m/S 745 mmHg 84%
    11:00 +5°C° 0 mm 3 m/S 745 mmHg 83%
    12:00 +7°C° 0 mm 3 m/S 745 mmHg 82%
    13:00 +8°C° 0 mm 3 m/S 745 mmHg 81%
    14:00 +8°C° 0 mm 3 m/S 746 mmHg 82%
    15:00 +7°C° 0 mm 3 m/S 746 mmHg 83%
    16:00 +5°C° 0 mm 3 m/S 746 mmHg 83%
    17:00 +4°C° 0 mm 3 m/S 747 mmHg 84%
    18:00 +4°C° 0 mm 3 m/S 747 mmHg 84%
    19:00 +3°C° 0 mm 3 m/S 748 mmHg 84%
    20:00 +3°C° 0 mm 3 m/S 748 mmHg 83%
    21:00 +3°C° 0 mm 3 m/S 748 mmHg 83%
    22:00 +3°C° 0 mm 3 m/S 748 mmHg 83%
    23:00 +2°C° 0 mm 3 m/S 748 mmHg 82%

    Morgen, 19 Dezember, Mittwoch

    Zeit Temperatur Niederschläge Wind Luftdruck Luftfeuchtigkeit
    00:00 +3°C° 0 mm 2 m/S 749 mmHg 82%
    01:00 +3°C° 0 mm 2 m/S 749 mmHg 82%
    02:00 +3°C° 0 mm 2 m/S 749 mmHg 82%
    03:00 +3°C° 0 mm 2 m/S 749 mmHg 81%
    04:00 +3°C° 0 mm 2 m/S 749 mmHg 81%
    05:00 +2°C° 0 mm 2 m/S 749 mmHg 81%
    06:00 +2°C° 0 mm 2 m/S 749 mmHg 81%
    07:00 +2°C° 0 mm 2 m/S 750 mmHg 80%
    08:00 +3°C° 0 mm 2 m/S 750 mmHg 78%
    09:00 +5°C° 0 mm 2 m/S 750 mmHg 75%
    10:00 +6°C° 0 mm 2 m/S 751 mmHg 73%
    11:00 +7°C° 0 mm 2 m/S 751 mmHg 73%
    12:00 +8°C° 0 mm 2 m/S 750 mmHg 73%
    13:00 +8°C° 0 mm 2 m/S 750 mmHg 73%
    14:00 +8°C° 0 mm 2 m/S 750 mmHg 75%
    15:00 +8°C° 0 mm 1 m/S 750 mmHg 77%
    16:00 +7°C° 0 mm 1 m/S 750 mmHg 80%
    17:00 +6°C° 0 mm 1 m/S 751 mmHg 80%
    18:00 +6°C° 0 mm 1 m/S 751 mmHg 80%
    19:00 +5°C° 0 mm 1 m/S 751 mmHg 81%
    20:00 +5°C° 0 mm 1 m/S 751 mmHg 80%
    21:00 +4°C° 0 mm 2 m/S 751 mmHg 79%
    22:00 +4°C° 0 mm 2 m/S 751 mmHg 79%
    23:00 +4°C° 0 mm 2 m/S 752 mmHg 79%

    übermorgen, 20 Dezember, Donnerstag

    Zeit Temperatur Niederschläge Wind Luftdruck Luftfeuchtigkeit
    00:00 +4°C° 0 mm 2 m/S 752 mmHg 79%
    01:00 +4°C° 0 mm 2 m/S 752 mmHg 79%
    02:00 +4°C° 0 mm 2 m/S 752 mmHg 79%
    03:00 +4°C° 0 mm 2 m/S 751 mmHg 79%
    04:00 +4°C° 0 mm 2 m/S 751 mmHg 79%
    05:00 +4°C° 0 mm 2 m/S 751 mmHg 79%
    06:00 +4°C° 0 mm 2 m/S 752 mmHg 79%
    07:00 +4°C° 0 mm 2 m/S 752 mmHg 79%
    08:00 +6°C° 0 mm 2 m/S 752 mmHg 77%
    09:00 +7°C° 0 mm 2 m/S 752 mmHg 76%
    10:00 +9°C° 0 mm 2 m/S 752 mmHg 75%
    11:00 +9°C° 0 mm 2 m/S 752 mmHg 73%
    12:00 +10°C° 0 mm 2 m/S 752 mmHg 71%
    13:00 +12°C° 0 mm 2 m/S 751 mmHg 69%
    14:00 +10°C° 0 mm 2 m/S 751 mmHg 72%
    15:00 +9°C° 0 mm 2 m/S 751 mmHg 74%
    16:00 +8°C° 0 mm 2 m/S 751 mmHg 77%
    17:00 +7°C° 0 mm 2 m/S 751 mmHg 78%
    18:00 +7°C° 0 mm 2 m/S 752 mmHg 78%
    19:00 +5°C° 0 mm 3 m/S 752 mmHg 79%
    20:00 +5°C° 0 mm 3 m/S 752 mmHg 80%
    21:00 +5°C° 0 mm 3 m/S 752 mmHg 80%
    22:00 +5°C° 0 mm 3 m/S 752 mmHg 80%
    23:00 +5°C° 0 mm 3 m/S 752 mmHg 80%

    21 Dezember, Freitag

    Zeit Temperatur Niederschläge Wind Luftdruck Luftfeuchtigkeit
    00:00 +5°C° 0 mm 3 m/S 752 mmHg 79%
    01:00 +5°C° 0 mm 3 m/S 752 mmHg 78%
    02:00 +5°C° 0 mm 3 m/S 752 mmHg 78%
    03:00 +5°C° 0 mm 3 m/S 752 mmHg 78%
    04:00 +7°C° 0 mm 2 m/S 752 mmHg 78%
    05:00 +7°C° 0 mm 2 m/S 752 mmHg 79%
    06:00 +7°C° 0 mm 2 m/S 752 mmHg 80%
    07:00 +7°C° 0 mm 2 m/S 752 mmHg 81%
    08:00 +8°C° 0 mm 2 m/S 753 mmHg 81%
    09:00 +10°C° 0 mm 2 m/S 753 mmHg 80%
    10:00 +12°C° 0 mm 1 m/S 753 mmHg 80%
    11:00 +12°C° 0 mm 1 m/S 753 mmHg 78%
    12:00 +13°C° 0 mm 1 m/S 752 mmHg 77%
    13:00 +13°C° 0 mm 1 m/S 752 mmHg 76%
    14:00 +13°C° 0 mm 1 m/S 752 mmHg 79%
    15:00 +12°C° 0 mm 1 m/S 752 mmHg 82%
    16:00 +11°C° 0 mm 1 m/S 752 mmHg 86%
    17:00 +10°C° 0 mm 1 m/S 753 mmHg 86%
    18:00 +10°C° 0 mm 1 m/S 753 mmHg 87%
    19:00 +9°C° 0 mm 1 m/S 753 mmHg 88%
    20:00 +9°C° 0 mm 1 m/S 753 mmHg 88%
    21:00 +9°C° 0 mm 1 m/S 753 mmHg 89%
    22:00 +9°C° 0 mm 1 m/S 753 mmHg 89%
    23:00 +9°C° 0 mm 1 m/S 753 mmHg 89%

    22 Dezember, Samstag

    Zeit Temperatur Niederschläge Wind Luftdruck Luftfeuchtigkeit
    00:00 +9°C° 0 mm 1 m/S 753 mmHg 90%
    01:00 +8°C° 0 mm 1 m/S 753 mmHg 90%
    02:00 +8°C° 0 mm 1 m/S 753 mmHg 90%
    03:00 +8°C° 0 mm 1 m/S 752 mmHg 91%
    04:00 +8°C° 0 mm 1 m/S 752 mmHg 91%
    05:00 +8°C° 0 mm 1 m/S 752 mmHg 91%
    06:00 +8°C° 0 mm 1 m/S 752 mmHg 90%
    07:00 +8°C° 0 mm 1 m/S 753 mmHg 90%
    08:00 +9°C° 0 mm 1 m/S 753 mmHg 87%
    09:00 +10°C° 0 mm 1 m/S 753 mmHg 83%
    10:00 +12°C° 0 mm 1 m/S 753 mmHg 80%
    11:00 +12°C° 0 mm 1 m/S 752 mmHg 79%
    12:00 +13°C° 0 mm 1 m/S 752 mmHg 77%
    13:00 +13°C° 0 mm 1 m/S 751 mmHg 76%
    14:00 +12°C° 0 mm 1 m/S 751 mmHg 79%
    15:00 +12°C° 0 mm 1 m/S 751 mmHg 82%
    16:00 +11°C° 0 mm 1 m/S 751 mmHg 85%
    17:00 +10°C° 0 mm 1 m/S 751 mmHg 86%
    18:00 +10°C° 0 mm 1 m/S 751 mmHg 87%
    19:00 +9°C° 0 mm 1 m/S 751 mmHg 88%
    20:00 +9°C° 0 mm 1 m/S 751 mmHg 88%
    21:00 +9°C° 0 mm 1 m/S 751 mmHg 87%
    22:00 +8°C° 0 mm 1 m/S 751 mmHg 87%
    23:00 +8°C° 0 mm 1 m/S 751 mmHg 86%

    23 Dezember, Sonntag

    Zeit Temperatur Niederschläge Wind Luftdruck Luftfeuchtigkeit
    00:00 +8°C° 0 mm 1 m/S 751 mmHg 86%
    01:00 +8°C° 0 mm 1 m/S 751 mmHg 85%
    02:00 +8°C° 0 mm 1 m/S 751 mmHg 85%
    03:00 +8°C° 0 mm 1 m/S 751 mmHg 85%
    04:00 +8°C° 0 mm 1 m/S 750 mmHg 85%
    05:00 +8°C° 0 mm 1 m/S 751 mmHg 86%
    06:00 +8°C° 0 mm 1 m/S 751 mmHg 86%
    07:00 +8°C° 0 mm 1 m/S 751 mmHg 86%
    08:00 +9°C° 0 mm 1 m/S 751 mmHg 83%
    09:00 +11°C° 0 mm 1 m/S 751 mmHg 80%
    10:00 +12°C° 0 mm 1 m/S 752 mmHg 76%
    11:00 +13°C° 0 mm 1 m/S 751 mmHg 75%
    12:00 +14°C° 0 mm 1 m/S 751 mmHg 74%
    13:00 +14°C° 0 mm 1 m/S 751 mmHg 73%
    14:00 +14°C° 0 mm 1 m/S 751 mmHg 77%
    15:00 +13°C° 0 mm 1 m/S 751 mmHg 81%
    16:00 +12°C° 0 mm 1 m/S 751 mmHg 85%
    17:00 +11°C° 0 mm 1 m/S 751 mmHg 86%
    18:00 +11°C° 0 mm 1 m/S 751 mmHg 87%
    19:00 +10°C° 0 mm 1 m/S 751 mmHg 88%
    20:00 +10°C° 0 mm 1 m/S 752 mmHg 87%
    21:00 +10°C° 0 mm 1 m/S 752 mmHg 85%
    22:00 +10°C° 0 mm 1 m/S 752 mmHg 84%
    23:00 +9°C° 0 mm 1 m/S 752 mmHg 83%
    Mehr zeigen